STARLINK-35815, 66577

Orbit data source: Space-Track

STARLINK-35815, 66577 is a payload satellite owned by SpaceX/Seattle (US) in LEO that was launched on Fri, 21 Nov 2025 UTC via an FALCON 9 launch vehicle from the Air Force Eastern Test Range (AFETR). Payload-class satellites include a variety of spacecraft equipped with specific instruments for various scientific and technological missions. These include communications satellites like Starlink; space stations such as the ISS; scientific satellites like the Hubble; Earth observation satellites from companies like Planet Labs, Umbra, and HawkEye 360; GPS; miniature CubeSats for education and research; and military/defense satellites.

Loading next visibility...
Identifier
66577, 2025-268W
Orbit
LEO
Country
Flag of USUS
Related business
Manufacturer
SpaceX/Seattle
Mission
Operational Commercial Communications
Bus & Motor
STARLINK V2MO, Unknown motor
Mass
575 kg wet, ~530 kg dry
Launch date (UTC)
2025-11-21 (7 months ago)
Launch vehicle
FALCON 9
Launch site
Air Force Eastern Test Range (AFETR)
Object type
Payload
Rocket body
Debris
Shape & HBR
Box + 2 Pan, 17.7 m
Radar Cross Section
36.964 m², Large (>1 m²)

Expand to show TLE details & history
Last TLE update: 14 hours ago

TLE from 14 hours ago
0 STARLINK-35815
1 66577U 25268W   26171.24226859  .00007832  00000-0  29388-3 0  9992
2 66577  43.0020 127.9134 0001455 277.9602  82.1084 15.27576148 33642
Epoch: 2026-06-20T05:48Z
TLE epoch observation values (Epoch: 2026-06-20T05:48:52.006Z)
Latitude
-0.00004°
Longitude
132.23696°
Altitude
482.699 km
Speed
7.626 km/s
True Right ascension
08h 31m 39s
True Declination
0° 00' 00"
Sunlit
Object was in daylight at epoch
Visualization orbit readout
Latitude
Unknown
Longitude
Unknown
Altitude
Unknown
Speed
Unknown
Apparent Right ascension
Unknown
Apparent Declination
Unknown
Sunlit
N/A
Visualization observer readout
Local Sidereal Time
07:12:10
Azimuth
Unknown
Elevation
Unknown
Doppler factor
Unknown
Orbital elements
Apogee altitude
486.004 km
Perigee altitude
484.007 km
Semi-major axis
6,863.142 km
Eccentricity
0.00015
Inclination
43.002°
RAAN
127.9134°
Arg. of periapsis
277.9602°
True anomaly
82.12492°
Mean anomaly
82.1084°
Eccentric anomaly
82.11666°
Mean motion
3.81732 °/min
Orbital period
94.31 mins
BSTAR
0.00029388
Loading maneuver chart data...
Computing Atmospheric mass density...
Loading historical data...
Loading historical data...
Loading historical data...
Loading historical data...
Loading historical data...
Loading historical data...
Loading historical data...

Documentation

Showing up to 5 results
|